Location: UMBC
(39.2555°N, 76.7093°W)
Time: 03:22:21
(UTC+02:00)

Amateur Radio Satellites - All Passes

Search period start: 06 May 2015 02:52
Search period end: 07 May 2015 02:52
Location: UMBC, 39.2555°N, 76.7093°W

Satellite Date Start Highest point End Downlink Frequencies (MHz)
Time Altitude Azimuth
CANX-2 06 May 02:56:07 03:00:24 74° 77° (ENE) 03:04:44 2200.000
CUTE 1.7 + AOD 2 06 May 03:03:29 03:07:47 81° 77° (ENE) 03:12:06 437.475
CINEMA 3 06 May 03:12:37 03:16:57 46° 73° (ENE) 03:21:32 145.822/145.860
FUNcube-1 06 May 03:15:43 03:18:29 17° 66° (ENE) 03:21:27 145.935
Oscar 11 06 May 03:17:31 03:21:18 30° 71° (ENE) 03:25:09 145.826/435.025
AUBIESAT-1 06 May 03:17:36 03:19:25 13° 300° (WNW) 03:21:03 437.475
O/OREOS (USA 219) 06 May 03:18:54 03:23:11 39° 297° (WNW) 03:27:27 437.305
COMPASS 1 06 May 03:20:35 03:24:50 84° 78° (ENE) 03:29:06 437.405
HO-68 06 May 03:31:15 03:38:19 57° 259° (W) 03:45:23 435.675
CUBEBUG 2 06 May 03:32:51 03:37:02 39° 72° (ENE) 03:41:25 437.445
UWE-3 06 May 03:35:10 03:39:12 34° 71° (ENE) 03:43:24 435.000/436.395/437.385
STRAND 1 06 May 03:38:31 03:41:43 16° 296° (WNW) 03:44:43 437.568
ZACube-1 06 May 03:44:28 03:48:27 34° 71° (ENE) 03:52:35 437.345
BRITE-PL 06 May 03:44:28 03:47:18 16° 271° (W) 03:50:05 437.365/2234.400
HUMSAT D 06 May 03:45:10 03:47:44 16° 67° (ENE) 03:50:29 437.325/437.525
DELFI C3 06 May 03:50:33 03:54:30 51° 74° (ENE) 03:58:29 145.870
DOVE 4 06 May 03:52:11 03:56:14 33° 265° (W) 04:00:29 437.250
AAUSAT CUBESAT 2 06 May 03:53:47 03:57:51 45° 262° (W) 04:01:55 437.432
Cosmos 2491 06 May 03:56:40 04:05:12 63° 92° (E) 04:13:51 435.465 / 435.565
RS-15 06 May 03:57:12 04:08:46 70° 54° (NE) 04:20:51 29.354- 29.394
YUBILEINY 06 May 04:04:48 04:13:27 67° 267° (W) 04:21:58 435.215
SEEDS 06 May 04:05:02 04:08:35 24° 266° (W) 04:12:03 437.485
DX 1 06 May 04:10:17 04:14:16 37° 71° (ENE) 04:18:17 434.975-435.025
GOMX 1 06 May 04:12:38 04:15:00 14° 273° (W) 04:17:12 467.674
VELOX 1 06 May 04:26:40 04:30:17 26° 69° (ENE) 04:33:59 145.980
ESTCUBE 1 06 May 04:32:15 04:35:08 17° 67° (ENE) 04:38:09 437.505/2401.250
TIGRISAT 06 May 04:36:32 04:38:43 14° 89° (E) 04:41:07 435.000
UKube-1 06 May 04:36:40 04:40:57 70° 75° (ENE) 04:45:16 .
UNISAT 6 06 May 04:45:23 04:48:25 18° 91° (E) 04:51:35 437.425
JUGNU 06 May 04:46:48 04:48:19 11° 180° (S) 04:49:52 437.505
AISAT 06 May 04:48:27 04:52:39 47° 73° (ENE) 04:56:55 437.250
FUNcube-1 06 May 04:50:10 04:54:28 46° 262° (W) 04:58:51 145.935
CINEMA 3 06 May 04:51:31 04:54:31 16° 271° (W) 04:57:23 145.822/145.860
Oscar 11 06 May 04:54:04 04:57:32 22° 267° (W) 05:00:55 145.826/435.025
AIST 1 06 May 04:57:26 05:00:17 18° 89° (E) 05:03:17
CUBEBUG 2 06 May 05:10:39 05:13:57 19° 269° (W) 05:17:11 437.445
UWE-3 06 May 05:12:18 05:15:51 22° 268° (W) 05:19:21 435.000/436.395/437.385
Cosmos 2504 06 May 05:14:24 05:21:14 35° 71° (ENE) 05:27:49 435.465 / 435.565
HUMSAT D 06 May 05:19:03 05:23:10 44° 262° (W) 05:27:19 437.325/437.525
SRMSAT 06 May 05:19:23 05:19:44 10° 174° (S) 05:20:10 437.500
50 SAT 06 May 05:20:51 05:24:51 68° 258° (WSW) 05:28:55 437.505
ZACube-1 06 May 05:21:26 05:24:55 21° 268° (W) 05:28:21 437.345
QB50P2 06 May 05:22:03 05:25:11 20° 93° (E) 05:28:26 145.880/145.840
ANTELSAT 06 May 05:26:48 05:31:20 50° 99° (E) 05:35:44 437.575/2403.000
DELFI C3 06 May 05:28:32 05:30:01 11° 271° (W) 05:31:15 145.870
NANOSAT C BR1 06 May 05:31:39 05:35:10 25° 94° (E) 05:38:45 145.865
CUBEBUG 1 06 May 05:34:09 05:38:26 70° 75° (ENE) 05:42:44 437.445
BEESAT 3 06 May 05:39:39 05:43:06 27° 114° (ESE) 05:46:39 437.485
POPSAT HIP 1 06 May 05:40:01 05:43:50 31° 96° (E) 05:47:41 437.405
DX 1 06 May 05:47:40 05:50:41 18° 267° (W) 05:53:35 434.975-435.025
Cosmos 2491 06 May 05:55:28 06:02:47 28° 293° (WNW) 06:09:53 435.465 / 435.565
BEESAT 2 06 May 05:55:45 05:59:27 34° 115° (ESE) 06:03:14 435.950
DUCHIFAT 1 06 May 06:01:25 06:05:39 54° 100° (E) 06:09:51 145.980
VELOX 1 06 May 06:03:04 06:06:48 26° 265° (W) 06:10:30 145.980
ESTCUBE 1 06 May 06:07:25 06:11:42 43° 262° (W) 06:16:00 437.505/2401.250
YUBILEINY 06 May 06:07:33 06:08:47 10° 284° (WNW) 06:09:12 435.215
SPROUT 06 May 06:10:22 06:14:25 45° 73° (ENE) 06:18:33 437.525
RS-15 06 May 06:10:32 06:20:37 34° 253° (WSW) 06:30:37 29.354- 29.394
TIGRISAT 06 May 06:11:21 06:15:55 55° 286° (WNW) 06:20:20 435.000
POLYITAN 1 06 May 06:14:45 06:19:07 82° 105° (ESE) 06:23:26 437.675
UNISAT 6 06 May 06:21:04 06:25:27 42° 288° (WNW) 06:29:43 437.425
QB50P1 06 May 06:26:34 06:30:53 75° 284° (WNW) 06:35:10 145.935-145.965
AISAT 06 May 06:26:59 06:29:34 15° 269° (W) 06:31:57 437.250
AIST 2 06 May 06:29:47 06:33:12 24° 113° (ESE) 06:36:43 435.215
TISAT 1 06 May 06:31:24 06:35:31 61° 74° (ENE) 06:39:41 437.305
AIST 1 06 May 06:33:54 06:37:45 32° 284° (WNW) 06:41:34
BUGSAT 1 06 May 06:38:20 06:42:34 80° 284° (WNW) 06:46:48 437.445
QB50P2 06 May 06:57:18 07:01:11 33° 289° (WNW) 07:05:01 145.880/145.840
ANTELSAT 06 May 07:04:48 07:07:43 16° 295° (WNW) 07:10:25 437.575/2403.000
SRMSAT 06 May 07:06:50 07:08:01 11° 184° (S) 07:09:09 437.500
NANOSAT C BR1 06 May 07:07:21 07:10:59 27° 290° (WNW) 07:14:33 145.865
Cosmos 2504 06 May 07:07:42 07:14:46 41° 272° (W) 07:21:22 435.465 / 435.565
ITUPSAT 1 06 May 07:14:33 07:18:37 29° 69° (ENE) 07:22:44 437.325
POPSAT HIP 1 06 May 07:16:12 07:19:34 22° 291° (WNW) 07:22:49 437.405
BEESAT 3 06 May 07:17:34 07:21:05 27° 311° (NW) 07:24:35 437.485
CUSAT 1 06 May 07:33:23 07:38:17 17° 60° (ENE) 07:43:36 437.405
BEESAT 2 06 May 07:34:19 07:37:39 23° 312° (NW) 07:40:57 435.950
BEESAT 06 May 07:37:15 07:41:51 50° 73° (ENE) 07:46:29 436.000
DUCHIFAT 1 06 May 07:38:53 07:41:03 13° 294° (WNW) 07:43:02 145.980
SWISSCUBE 06 May 07:41:39 07:46:20 61° 74° (ENE) 07:51:04 437.505
DANDE 06 May 07:45:55 07:50:57 18° 60° (ENE) 07:56:34 436.750
SPROUT 06 May 07:48:20 07:50:49 14° 270° (W) 07:53:06 437.525
AIST 2 06 May 08:07:48 08:11:40 32° 309° (NW) 08:15:31 435.215
Oscar 19 06 May 08:08:26 08:13:17 39° 97° (E) 08:18:09 437.125/150
STARS 06 May 08:09:36 08:11:06 12° 64° (ENE) 08:12:49 437.465
TISAT 1 06 May 08:11:10 08:11:48 10° 272° (W) 08:12:08 437.305
GONETS M04 06 May 08:29:12 08:37:33 45° 74° (ENE) 08:45:53
ITUPSAT 1 06 May 08:52:20 08:56:28 28° 265° (W) 09:00:33 437.325
Gurwin Techsat 1B 06 May 09:06:37 09:11:32 38° 97° (E) 09:16:29 435.225
ITAMSAT 1 06 May 09:08:40 09:13:36 44° 98° (E) 09:18:33 435.822/435.867
CUSAT 1 06 May 09:14:06 09:22:27 79° 80° (E) 09:30:25 437.405
KKS-1 06 May 09:16:14 09:20:41 81° 259° (W) 09:25:11 437.445
BEESAT 06 May 09:17:02 09:20:03 16° 269° (W) 09:22:52 436.000
SWISSCUBE 06 May 09:22:21 09:24:41 13° 271° (W) 09:26:45 437.505
DANDE 06 May 09:27:09 09:35:36 79° 80° (E) 09:44:01 436.750
MOZHAYETS 4 06 May 09:33:58 09:34:50 11° 63° (ENE) 09:35:58
STARS 06 May 09:42:41 09:47:03 66° 259° (WSW) 09:51:28 437.465
Oscar 19 06 May 09:48:15 09:52:27 24° 293° (WNW) 09:56:30 437.125/150
HORYU 2 06 May 09:56:56 10:00:13 20° 93° (E) 10:03:35 437.375
GONETS M04 06 May 10:26:18 10:34:18 38° 273° (W) 10:42:03
AO-7 06 May 10:31:06 10:38:40 38° 97° (E) 10:46:21 29.400- 29.500
Gurwin Techsat 1B 06 May 10:46:58 10:51:22 26° 293° (WNW) 10:55:39 435.225
ITAMSAT 1 06 May 10:48:51 10:52:51 22° 294° (WNW) 10:56:44 435.822/435.867
Cosmos 2499 06 May 10:52:00 10:59:21 61° 78° (ENE) 11:06:21 435.465 / 435.565
CUSAT 1 06 May 10:58:17 11:04:26 23° 276° (W) 11:10:04 437.405
MOZHAYETS 4 06 May 11:06:50 11:11:29 79° 258° (WSW) 11:16:08
DANDE 06 May 11:11:48 11:18:12 23° 275° (W) 11:24:14 436.750
JAS-2 06 May 11:13:47 11:19:34 85° 101° (E) 11:24:51 435.910
HORYU 2 06 May 11:32:54 11:36:59 35° 289° (WNW) 11:41:00 437.375
CUBESAT XI-V 06 May 11:40:47 11:43:52 19° 67° (ENE) 11:47:05 437.345
PCSat 06 May 11:50:37 11:55:43 45° 112° (ESE) 12:00:53 145.827
O/OREOS (USA 219) 06 May 11:50:43 11:54:40 30° 61° (ENE) 11:58:38 437.305
M-CUBED/EXP-1 PRIME 06 May 11:56:29 12:00:37 30° 66° (ENE) 12:04:43 437.505
Cubesat XI-IV 06 May 12:01:45 12:02:20 10° 87° (E) 12:03:21 437.490
PRISM 06 May 12:01:54 12:04:21 16° 67° (ENE) 12:06:56 437.425
AO-7 06 May 12:23:44 12:31:38 48° 295° (WNW) 12:39:26 29.400- 29.500
AUBIESAT-1 06 May 12:27:02 12:31:41 54° 69° (ENE) 12:36:12 437.475
Cosmos 2499 06 May 12:46:30 12:51:52 21° 277° (W) 12:56:46 435.465 / 435.565
JAS-2 06 May 13:01:25 13:03:50 12° 302° (WNW) 13:05:54 435.910
STRAND 1 06 May 13:12:42 13:17:46 78° 76° (ENE) 13:22:54 437.568
CUBESAT XI-V 06 May 13:16:40 13:21:02 42° 262° (W) 13:25:24 437.345
CUTE-I 06 May 13:24:38 13:29:58 71° 102° (ESE) 13:35:18 437.470
O/OREOS (USA 219) 06 May 13:30:22 13:33:58 23° 257° (WSW) 13:37:27 437.305
M-CUBED/EXP-1 PRIME 06 May 13:31:10 13:35:23 29° 260° (W) 13:39:28 437.505
PCSat 06 May 13:34:48 13:39:21 26° 310° (NW) 13:43:52 145.827
PRISM 06 May 13:35:36 13:39:31 40° 261° (W) 13:43:25 437.425
Cubesat XI-IV 06 May 13:37:54 13:43:15 87° 288° (WNW) 13:48:37 437.490
BEESAT 3 06 May 13:59:50 14:02:14 15° 43° (NE) 14:04:43 437.485
AUBIESAT-1 06 May 14:03:44 14:06:43 16° 264° (W) 14:09:29 437.475
Cosmos 2491 06 May 14:08:49 14:16:09 29° 68° (ENE) 14:23:43 435.465 / 435.565
BRITE-PL 06 May 14:10:05 14:13:48 19° 90° (E) 14:17:48 437.365/2234.400
BEESAT 2 06 May 14:16:25 14:19:15 18° 45° (NE) 14:22:09 435.950
ISS 06 May 14:16:57 14:20:10 88° 320° (NW) 14:23:26 145.825
GOMX 1 06 May 14:35:07 14:39:04 21° 91° (E) 14:43:13 467.674
CANX-2 06 May 14:44:17 14:46:20 14° 90° (E) 14:48:36 2200.000
CUTE 1.7 + AOD 2 06 May 14:51:20 14:53:40 15° 90° (E) 14:56:11 437.475
AIST 2 06 May 14:52:50 14:55:12 15° 42° (NE) 14:57:41 435.215
STRAND 1 06 May 14:56:08 14:57:41 11° 273° (W) 14:58:53 437.568
SO-50 06 May 14:57:43 15:02:14 54° 117° (ESE) 15:06:56 436.795
HO-68 06 May 15:00:30 15:06:34 30° 94° (E) 15:12:46 435.675
CUTE-I 06 May 15:06:27 15:09:31 15° 297° (WNW) 15:12:22 437.470
COMPASS 1 06 May 15:06:44 15:08:57 14° 90° (E) 15:11:20 437.405
YUBILEINY 06 May 15:08:58 15:16:09 30° 85° (E) 15:23:34 435.215
CINEMA 3 06 May 15:10:12 15:12:38 14° 88° (E) 15:15:19 145.822/145.860
Cubesat XI-IV 06 May 15:20:55 15:22:40 11° 300° (WNW) 15:24:06 437.490
TIGRISAT 06 May 15:35:13 15:36:53 12° 64° (ENE) 15:38:49 435.000
BEESAT 3 06 May 15:36:36 15:40:38 57° 242° (WSW) 15:44:34 437.485
AAUSAT CUBESAT 2 06 May 15:38:08 15:41:43 28° 95° (E) 15:45:20 437.432
UNISAT 6 06 May 15:43:56 15:46:34 16° 65° (ENE) 15:49:26 437.425
BRITE-PL 06 May 15:47:15 15:52:38 58° 286° (WNW) 15:58:12 437.365/2234.400
SEEDS 06 May 15:49:37 15:53:47 58° 100° (E) 15:57:55 437.485
DOVE 4 06 May 15:51:14 15:56:33 74° 101° (E) 16:01:52 437.250
BEESAT 2 06 May 15:53:40 15:57:37 45° 243° (WSW) 16:01:29 435.950
ISS 06 May 15:54:44 15:56:55 16° 340° (NNW) 15:59:05 145.825
Cosmos 2491 06 May 16:04:59 16:13:39 60° 268° (W) 16:22:12 435.465 / 435.565
GOMX 1 06 May 16:12:12 16:17:26 50° 287° (WNW) 16:22:44 467.674
QB50P2 06 May 16:15:08 16:17:19 14° 66° (ENE) 16:19:41 145.880/145.840
CANX-2 06 May 16:18:30 16:22:36 46° 286° (WNW) 16:26:38 2200.000
NANOSAT C BR1 06 May 16:24:05 16:26:46 17° 67° (ENE) 16:29:37 145.865
ANTELSAT 06 May 16:24:32 16:28:51 40° 72° (ENE) 16:33:16 437.575/2403.000
CUTE 1.7 + AOD 2 06 May 16:25:49 16:29:51 42° 287° (WNW) 16:33:50 437.475
UKube-1 06 May 16:27:12 16:28:58 13° 90° (E) 16:31:00 .
AIST 2 06 May 16:30:04 16:34:16 65° 242° (WSW) 16:38:22 435.215
POPSAT HIP 1 06 May 16:32:24 16:35:33 21° 69° (ENE) 16:38:50 437.405
SO-50 06 May 16:39:34 16:43:09 20° 317° (NW) 16:46:44 436.795
FUNcube-1 06 May 16:39:48 16:44:00 36° 96° (E) 16:48:09 145.935
COMPASS 1 06 May 16:40:57 16:44:54 42° 287° (WNW) 16:48:49 437.405
Oscar 11 06 May 16:41:19 16:45:39 71° 102° (ESE) 16:49:56 145.826/435.025
AIST 1 06 May 16:41:30 16:45:41 51° 80° (E) 16:49:54
CINEMA 3 06 May 16:45:20 16:50:21 64° 285° (WNW) 16:55:14 145.822/145.860
HO-68 06 May 16:47:42 16:54:35 50° 292° (WNW) 17:01:23 435.675
DUCHIFAT 1 06 May 16:52:56 16:56:44 34° 72° (ENE) 17:00:37 145.980
50 SAT 06 May 17:00:12 17:02:32 15° 91° (E) 17:04:58 437.505
CUBEBUG 2 06 May 17:01:16 17:06:04 80° 283° (WNW) 17:10:42 437.445
UWE-3 06 May 17:02:06 17:06:48 85° 102° (ESE) 17:11:22 435.000/436.395/437.385
YUBILEINY 06 May 17:03:56 17:12:35 56° 283° (WNW) 17:21:10 435.215
HUMSAT D 06 May 17:04:26 17:08:16 31° 96° (E) 17:12:05 437.325/437.525
DELFI C3 06 May 17:05:54 17:09:56 78° 285° (WNW) 17:13:56 145.870
POLYITAN 1 06 May 17:06:38 17:10:46 52° 74° (ENE) 17:14:57 437.675
TIGRISAT 06 May 17:08:28 17:13:04 72° 259° (WSW) 17:17:48 435.000
ZACube-1 06 May 17:09:57 17:14:34 82° 102° (ESE) 17:19:03 437.345
AAUSAT CUBESAT 2 06 May 17:13:59 17:17:13 22° 291° (WNW) 17:20:20 437.432
QB50P1 06 May 17:18:02 17:22:14 71° 76° (ENE) 17:26:29 145.935-145.965
UNISAT 6 06 May 17:18:23 17:22:56 54° 261° (W) 17:27:34 437.425
CUBEBUG 1 06 May 17:25:35 17:27:49 14° 90° (E) 17:30:17 437.445
BUGSAT 1 06 May 17:27:20 17:31:17 59° 75° (ENE) 17:35:18 437.445
SEEDS 06 May 17:27:29 17:29:08 12° 295° (WNW) 17:30:34 437.485
VERMONT LUNAR 06 May 17:29:59 17:32:40 24° 151° (SSE) 17:35:24 437.305
DOVE 4 06 May 17:30:45 17:33:45 15° 296° (WNW) 17:36:30 437.250
DX 1 06 May 17:35:17 17:39:41 83° 102° (ESE) 17:44:05 434.975-435.025
QB50P2 06 May 17:48:44 17:52:50 49° 261° (W) 17:57:00 145.880/145.840
Cosmos 2504 06 May 17:50:33 17:58:01 33° 87° (E) 18:05:28 435.465 / 435.565
VELOX 1 06 May 17:53:43 17:58:08 61° 101° (E) 18:02:34 145.980
NANOSAT C BR1 06 May 17:58:23 18:02:21 39° 262° (W) 18:06:20 145.865
ESTCUBE 1 06 May 18:01:01 18:05:15 40° 98° (E) 18:09:30 437.505/2401.250
UKube-1 06 May 18:01:16 18:05:31 53° 286° (WNW) 18:09:44 .
ANTELSAT 06 May 18:02:23 18:05:49 20° 268° (W) 18:09:09 437.575/2403.000
POPSAT HIP 1 06 May 18:07:30 18:11:17 31° 264° (W) 18:15:03 437.405
AISAT 06 May 18:16:24 18:20:53 72° 284° (WNW) 18:25:21 437.250
FUNcube-1 06 May 18:16:40 18:20:06 21° 292° (WNW) 18:23:22 145.935
TISAT 1 06 May 18:19:52 18:20:30 10° 88° (E) 18:21:27 437.305
RS-15 06 May 18:19:52 18:29:59 48° 111° (ESE) 18:40:23 29.354- 29.394
Oscar 11 06 May 18:20:23 18:21:18 10° 296° (WNW) 18:21:58 145.826/435.025
AIST 1 06 May 18:21:13 18:22:56 12° 274° (W) 18:24:25
PHONESAT 2.4 06 May 18:24:26 18:27:10 22° 150° (SSE) 18:29:58 2401.200-2431.200
DUCHIFAT 1 06 May 18:29:42 18:32:42 18° 268° (W) 18:35:36 145.980
50 SAT 06 May 18:33:48 18:37:30 36° 288° (WNW) 18:41:07 437.505
HUMSAT D 06 May 18:40:33 18:43:51 21° 291° (WNW) 18:47:01 437.325/437.525
UWE-3 06 May 18:42:15 18:42:41 10° 297° (WNW) 18:42:50 435.000/436.395/437.385
POLYITAN 1 06 May 18:45:12 18:47:04 12° 271° (W) 18:48:44 437.675
CUBEBUG 1 06 May 19:00:15 19:04:31 49° 287° (WNW) 19:08:46 437.445
VERMONT LUNAR 06 May 19:06:31 19:09:49 85° 163° (SSE) 19:13:10 437.305
ISS 06 May 19:09:39 19:11:45 16° 20° (NNE) 19:13:54 145.825
Oscar 19 06 May 19:24:06 19:29:05 52° 73° (ENE) 19:34:09 437.125/150
VELOX 1 06 May 19:32:07 19:34:14 13° 295° (WNW) 19:36:09 145.980
SPROUT 06 May 19:33:45 19:38:06 77° 284° (WNW) 19:42:26 437.525
ESTCUBE 1 06 May 19:38:41 19:41:52 19° 293° (WNW) 19:44:53 437.505/2401.250
BEESAT 06 May 19:40:13 19:42:30 14° 90° (E) 19:45:03 436.000
Cosmos 2504 06 May 19:42:35 19:51:12 53° 283° (WNW) 19:59:27 435.465 / 435.565
SWISSCUBE 06 May 19:44:15 19:47:13 17° 91° (E) 19:50:22 437.505
TISAT 1 06 May 19:52:32 19:56:47 62° 285° (WNW) 20:00:59 437.305
PHONESAT 2.4 06 May 20:01:34 20:05:05 78° 164° (SSE) 20:08:39 2401.200-2431.200
ITAMSAT 1 06 May 20:25:33 20:30:38 60° 73° (ENE) 20:35:44 435.822/435.867
Gurwin Techsat 1B 06 May 20:26:35 20:31:44 54° 73° (ENE) 20:36:55 435.225
RS-15 06 May 20:31:51 20:42:23 50° 313° (NW) 20:53:08 29.354- 29.394
PCSat 06 May 20:39:35 20:44:19 30° 51° (NE) 20:49:07 145.827
VERMONT LUNAR 06 May 20:43:59 20:47:19 69° 5° (N) 20:50:39 437.305
ISS 06 May 20:45:16 20:48:32 82° 38° (NE) 20:51:47 145.825
ITUPSAT 1 06 May 20:53:06 20:57:53 81° 104° (ESE) 21:02:39 437.325
HORYU 2 06 May 20:54:45 20:57:42 18° 67° (ENE) 21:00:49 437.375
Oscar 19 06 May 21:05:16 21:08:50 18° 269° (W) 21:12:12 437.125/150
KKS-1 06 May 21:09:11 21:12:34 21° 93° (E) 21:16:03 437.445
BEESAT 06 May 21:16:07 21:20:49 57° 286° (WNW) 21:25:27 436.000
SWISSCUBE 06 May 21:20:49 21:25:23 47° 288° (WNW) 21:29:56 437.505
JAS-2 06 May 21:22:51 21:29:44 39° 69° (ENE) 21:36:16 435.910
GONETS M04 06 May 21:28:31 21:36:53 54° 91° (E) 21:45:26
AO-7 06 May 21:28:52 21:36:38 48° 65° (ENE) 21:44:30 29.400- 29.500
STARS 06 May 21:34:02 21:37:39 24° 95° (E) 21:41:18 437.465
PHONESAT 2.4 06 May 21:39:50 21:43:22 70° 2° (N) 21:46:56 2401.200-2431.200
ITAMSAT 1 06 May 22:07:34 22:10:38 15° 270° (W) 22:13:26 435.822/435.867
Gurwin Techsat 1B 06 May 22:08:31 22:12:07 18° 269° (W) 22:15:31 435.225
CUSAT 1 06 May 22:20:27 22:25:07 86° 98° (E) 22:31:28 437.405
VERMONT LUNAR 06 May 22:21:25 22:24:42 55° 200° (SSW) 22:28:00 437.305
PCSat 06 May 22:22:50 22:27:50 38° 249° (WSW) 22:32:45 145.827
HORYU 2 06 May 22:29:47 22:34:04 42° 261° (W) 22:38:22 437.375
ITUPSAT 1 06 May 22:33:44 22:35:12 11° 298° (WNW) 22:36:23 437.325
DANDE 06 May 22:38:24 22:42:44 87° 273° (W) 22:48:44 436.750
KKS-1 06 May 22:45:13 22:49:19 34° 289° (WNW) 22:53:19 437.445
RS-15 06 May 22:50:47 22:58:31 20° 345° (NNW) 23:06:14 29.354- 29.394
MOZHAYETS 4 06 May 23:03:37 23:07:24 26° 94° (E) 23:11:15
JAS-2 06 May 23:07:22 23:14:42 43° 263° (W) 23:21:29 435.910
CUTE-I 06 May 23:09:03 23:11:22 13° 62° (ENE) 23:13:59 437.470
STARS 06 May 23:10:13 23:14:05 29° 290° (WNW) 23:17:54 437.465
PHONESAT 2.4 06 May 23:18:04 23:21:37 63° 199° (SSW) 23:25:09 2401.200-2431.200
Cubesat XI-IV 06 May 23:21:17 23:24:39 18° 64° (ENE) 23:28:12 437.490
AO-7 06 May 23:22:03 23:29:37 37° 263° (W) 23:37:05 29.400- 29.500
Cosmos 2499 06 May 23:25:27 23:33:53 55° 92° (E) 23:41:58 435.465 / 435.565
GONETS M04 06 May 23:26:23 23:34:11 33° 291° (WNW) 23:41:49
SO-50 06 May 23:30:12 23:34:51 39° 51° (NE) 23:39:27 436.795
VERMONT LUNAR 06 May 23:59:59 00:01:41 13° 214° (SSW) 00:03:19 437.305
CUSAT 1 07 May 00:06:55 00:09:23 12° 305° (NW) 00:11:43 437.405
DANDE 07 May 00:27:03 00:27:42 10° 307° (NW) 00:28:00 436.750
MOZHAYETS 4 07 May 00:40:41 00:44:37 28° 290° (WNW) 00:48:28
CUTE-I 07 May 00:45:32 00:50:51 80° 257° (WSW) 00:56:12 437.470
PHONESAT 2.4 07 May 00:57:05 00:59:27 16° 213° (SSW) 01:01:44 2401.200-2431.200
Cubesat XI-IV 07 May 00:59:05 01:04:20 59° 259° (W) 01:09:36 437.490
RS-15 07 May 01:08:33 01:16:40 22° 20° (NNE) 01:25:18 29.354- 29.394
SO-50 07 May 01:11:08 01:15:14 26° 248° (WSW) 01:19:12 436.795
CUBESAT XI-V 07 May 01:14:05 01:18:35 50° 99° (E) 01:23:06 437.345
M-CUBED/EXP-1 PRIME 07 May 01:14:38 01:17:22 20° 98° (E) 01:20:03 437.505
PRISM 07 May 01:19:09 01:22:39 27° 96° (E) 01:26:12 437.425
Cosmos 2499 07 May 01:19:46 01:27:25 32° 290° (WNW) 01:34:33 435.465 / 435.565
BRITE-PL 07 May 01:21:31 01:23:52 15° 64° (ENE) 01:26:29 437.365/2234.400
YUBILEINY 07 May 01:21:41 01:25:03 13° 56° (ENE) 01:29:03 435.215
STRAND 1 07 May 01:24:45 01:29:05 28° 95° (E) 01:33:31 437.568
HO-68 07 May 01:29:14 01:34:15 22° 59° (ENE) 01:39:32 435.675
GOMX 1 07 May 01:43:28 01:46:11 17° 65° (ENE) 01:49:12 467.674
AUBIESAT-1 07 May 01:44:35 01:48:06 41° 103° (ESE) 01:51:24 437.475
CUTE 1.7 + AOD 2 07 May 01:45:15 01:45:58 10° 65° (ENE) 01:46:56 437.475
O/OREOS (USA 219) 07 May 02:01:34 02:05:53 43° 106° (ESE) 02:10:12 437.305
CINEMA 3 07 May 02:12:27 02:13:43 11° 62° (ENE) 02:15:16 145.822/145.860
AAUSAT CUBESAT 2 07 May 02:28:40 02:31:31 18° 68° (ENE) 02:34:30 437.432
SEEDS 07 May 02:40:40 02:44:33 35° 72° (ENE) 02:48:29 437.485
